• In Netherlands
  • List of Countries
  • For 7 days
  • Water Temperature
  • Satellite Maps
  • Weather Map
  • Weather Widgets
  • user-avatar
    Login

    Hourly Weather Ravda

    Today, 28 March, Tuesday

    Time Temperature Precipitation Wind Pressure Humidity
    00:00 +4°C° 0 mm 2 mps 767 mmHg 76%
    01:00 +4°C° 0 mm 2 mps 767 mmHg 74%
    02:00 +4°C° 0 mm 2 mps 767 mmHg 73%
    03:00 +4°C° 0 mm 2 mps 767 mmHg 72%
    04:00 +4°C° 0 mm 2 mps 767 mmHg 71%
    05:00 +4°C° 0 mm 2 mps 767 mmHg 70%
    06:00 +5°C° 0 mm 2 mps 767 mmHg 67%
    07:00 +7°C° 0 mm 2 mps 767 mmHg 64%
    08:00 +9°C° 0 mm 2 mps 767 mmHg 60%
    09:00 +10°C° 0 mm 2 mps 767 mmHg 56%
    10:00 +13°C° 0 mm 2 mps 767 mmHg 53%
    11:00 +14°C° 0 mm 2 mps 767 mmHg 50%
    12:00 +15°C° 0 mm 2 mps 766 mmHg 49%
    13:00 +16°C° 0 mm 2 mps 766 mmHg 47%
    14:00 +18°C° 0 mm 1 mps 765 mmHg 46%
    15:00 +17°C° 0 mm 2 mps 765 mmHg 48%
    16:00 +17°C° 0 mm 2 mps 765 mmHg 51%
    17:00 +16°C° 0 mm 2 mps 765 mmHg 53%
    18:00 +14°C° 0 mm 2 mps 765 mmHg 60%
    19:00 +12°C° 0 mm 2 mps 765 mmHg 67%
    20:00 +8°C° 0 mm 2 mps 765 mmHg 74%
    21:00 +9°C° 0 mm 1 mps 765 mmHg 75%
    22:00 +9°C° 0 mm 1 mps 766 mmHg 76%
    23:00 +8°C° 0 mm 1 mps 766 mmHg 78%

    Tomorrow, 29 March, Wednesday

    Time Temperature Precipitation Wind Pressure Humidity
    00:00 +8°C° 0 mm 1 mps 766 mmHg 78%
    01:00 +8°C° 0 mm 1 mps 766 mmHg 78%
    02:00 +8°C° 0 mm 1 mps 766 mmHg 78%
    03:00 +7°C° 0 mm 1 mps 766 mmHg 78%
    04:00 +7°C° 0 mm 1 mps 766 mmHg 78%
    05:00 +7°C° 0 mm 1 mps 766 mmHg 78%
    06:00 +8°C° 0 mm 2 mps 766 mmHg 72%
    07:00 +10°C° 0 mm 2 mps 766 mmHg 66%
    08:00 +13°C° 0 mm 2 mps 766 mmHg 60%
    09:00 +14°C° 0 mm 2 mps 767 mmHg 57%
    10:00 +16°C° 0 mm 2 mps 767 mmHg 54%
    11:00 +17°C° 0 mm 2 mps 767 mmHg 51%
    12:00 +18°C° 0 mm 2 mps 766 mmHg 50%
    13:00 +18°C° 0 mm 2 mps 766 mmHg 50%
    14:00 +19°C° 0 mm 3 mps 766 mmHg 49%
    15:00 +18°C° 0 mm 3 mps 765 mmHg 53%
    16:00 +17°C° 0 mm 2 mps 765 mmHg 58%
    17:00 +17°C° 0 mm 2 mps 764 mmHg 62%
    18:00 +14°C° 0 mm 2 mps 765 mmHg 70%
    19:00 +12°C° 0 mm 2 mps 765 mmHg 77%
    20:00 +10°C° 0 mm 1 mps 765 mmHg 85%
    21:00 +10°C° 0 mm 1 mps 765 mmHg 86%
    22:00 +9°C° 0 mm 1 mps 765 mmHg 86%
    23:00 +8°C° 0 mm 0 mps 764 mmHg 87%

    Day after tomorrow, 30 March, Thursday

    Time Temperature Precipitation Wind Pressure Humidity
    00:00 +9°C° 0 mm 1 mps 764 mmHg 87%
    01:00 +8°C° 0 mm 1 mps 764 mmHg 87%
    02:00 +8°C° 0 mm 1 mps 764 mmHg 86%
    03:00 +8°C° 0 mm 1 mps 764 mmHg 86%
    04:00 +8°C° 0 mm 1 mps 763 mmHg 85%
    05:00 +8°C° 0 mm 1 mps 763 mmHg 84%
    06:00 +9°C° 0 mm 2 mps 763 mmHg 78%
    07:00 +12°C° 0 mm 2 mps 763 mmHg 72%
    08:00 +14°C° 0 mm 2 mps 763 mmHg 66%
    09:00 +16°C° 0 mm 2 mps 763 mmHg 61%
    10:00 +17°C° 0 mm 2 mps 764 mmHg 56%
    11:00 +19°C° 0 mm 3 mps 764 mmHg 51%
    12:00 +19°C° 0 mm 3 mps 764 mmHg 51%
    13:00 +19°C° 0 mm 4 mps 763 mmHg 52%
    14:00 +20°C° 0 mm 5 mps 763 mmHg 52%
    15:00 +17°C° 0.1 mm 5 mps 763 mmHg 57%
    16:00 +16°C° 0.1 mm 5 mps 764 mmHg 63%
    17:00 +15°C° 0.1 mm 5 mps 764 mmHg 68%
    18:00 +13°C° 0 mm 4 mps 764 mmHg 75%
    19:00 +11°C° 0 mm 3 mps 765 mmHg 82%
    20:00 +10°C° 0 mm 2 mps 766 mmHg 88%
    21:00 +10°C° 0 mm 3 mps 766 mmHg 88%
    22:00 +9°C° 0 mm 3 mps 767 mmHg 88%
    23:00 +9°C° 0 mm 3 mps 767 mmHg 89%

    31 March, Friday

    Time Temperature Precipitation Wind Pressure Humidity
    00:00 +8°C° 0 mm 4 mps 767 mmHg 89%
    01:00 +7°C° 0 mm 5 mps 767 mmHg 89%
    02:00 +7°C° 0 mm 5 mps 768 mmHg 90%
    03:00 +7°C° 0 mm 6 mps 768 mmHg 89%
    04:00 +5°C° 0 mm 6 mps 768 mmHg 88%
    05:00 +5°C° 0 mm 7 mps 768 mmHg 88%
    06:00 +5°C° 0 mm 7 mps 769 mmHg 84%
    07:00 +6°C° 0 mm 8 mps 769 mmHg 80%
    08:00 +6°C° 0 mm 8 mps 770 mmHg 76%
    09:00 +7°C° 0 mm 9 mps 770 mmHg 73%
    10:00 +7°C° 0 mm 9 mps 770 mmHg 69%
    11:00 +8°C° 0 mm 9 mps 770 mmHg 65%
    12:00 +8°C° 0 mm 9 mps 770 mmHg 63%
    13:00 +8°C° 0 mm 9 mps 770 mmHg 62%
    14:00 +10°C° 0 mm 9 mps 770 mmHg 60%
    15:00 +8°C° 0 mm 9 mps 770 mmHg 62%
    16:00 +7°C° 0 mm 8 mps 770 mmHg 63%
    17:00 +7°C° 0 mm 8 mps 770 mmHg 64%
    18:00 +5°C° 0 mm 7 mps 770 mmHg 69%
    19:00 +4°C° 0 mm 7 mps 771 mmHg 73%
    20:00 +3°C° 0 mm 6 mps 771 mmHg 77%
    21:00 +3°C° 0 mm 5 mps 771 mmHg 79%
    22:00 +2°C° 0 mm 5 mps 771 mmHg 81%
    23:00 +3°C° 0 mm 4 mps 771 mmHg 83%

    1 April, Saturday

    Time Temperature Precipitation Wind Pressure Humidity
    00:00 +1°C° 0 mm 4 mps 771 mmHg 83%
    01:00 +1°C° 0 mm 4 mps 770 mmHg 84%
    02:00 +1°C° 0 mm 4 mps 770 mmHg 84%
    03:00 +1°C° 0 mm 4 mps 770 mmHg 85%
    04:00 0°C° 0 mm 4 mps 770 mmHg 86%
    05:00 +1°C° 0 mm 3 mps 769 mmHg 87%
    06:00 +1°C° 0 mm 4 mps 770 mmHg 82%
    07:00 +4°C° 0 mm 4 mps 770 mmHg 78%
    08:00 +5°C° 0 mm 4 mps 770 mmHg 74%
    09:00 +6°C° 0 mm 4 mps 770 mmHg 68%
    10:00 +8°C° 0 mm 4 mps 770 mmHg 63%
    11:00 +9°C° 0 mm 5 mps 770 mmHg 57%
    12:00 +10°C° 0 mm 5 mps 769 mmHg 56%
    13:00 +10°C° 0 mm 5 mps 769 mmHg 54%
    14:00 +11°C° 0 mm 6 mps 769 mmHg 52%
    15:00 +10°C° 0 mm 5 mps 769 mmHg 55%
    16:00 +9°C° 0 mm 5 mps 768 mmHg 59%
    17:00 +9°C° 0 mm 5 mps 768 mmHg 62%
    18:00 +7°C° 0 mm 5 mps 768 mmHg 70%
    19:00 +5°C° 0 mm 4 mps 769 mmHg 78%
    20:00 +4°C° 0 mm 4 mps 769 mmHg 86%
    21:00 +3°C° 0 mm 3 mps 769 mmHg 87%
    22:00 +2°C° 0 mm 3 mps 769 mmHg 89%
    23:00 +3°C° 0 mm 2 mps 769 mmHg 90%

    2 April, Sunday

    Time Temperature Precipitation Wind Pressure Humidity
    00:00 +3°C° 0 mm 2 mps 768 mmHg 90%
    01:00 +3°C° 0 mm 2 mps 768 mmHg 90%
    02:00 +2°C° 0 mm 2 mps 768 mmHg 91%
    03:00 +2°C° 0 mm 2 mps 768 mmHg 91%
    04:00 +2°C° 0 mm 2 mps 768 mmHg 91%
    05:00 +1°C° 0 mm 3 mps 768 mmHg 91%
    06:00 +2°C° 0 mm 3 mps 768 mmHg 85%
    07:00 +4°C° 0 mm 3 mps 768 mmHg 79%
    08:00 +7°C° 0 mm 3 mps 768 mmHg 72%
    09:00 +9°C° 0 mm 3 mps 768 mmHg 66%
    10:00 +10°C° 0 mm 3 mps 768 mmHg 60%
    11:00 +12°C° 0 mm 4 mps 768 mmHg 53%
    12:00 +12°C° 0 mm 4 mps 768 mmHg 53%
    13:00 +13°C° 0 mm 4 mps 767 mmHg 52%
    14:00 +13°C° 0 mm 5 mps 767 mmHg 52%
    15:00 +12°C° 0 mm 4 mps 767 mmHg 56%
    16:00 +12°C° 0 mm 4 mps 767 mmHg 59%
    17:00 +11°C° 0 mm 4 mps 766 mmHg 63%
    18:00 +8°C° 0 mm 4 mps 767 mmHg 72%
    19:00 +7°C° 0 mm 3 mps 767 mmHg 80%
    20:00 +5°C° 0 mm 2 mps 767 mmHg 89%
    21:00 +5°C° 0 mm 2 mps 767 mmHg 89%
    22:00 +4°C° 0 mm 2 mps 767 mmHg 89%
    23:00 +4°C° 0 mm 2 mps 767 mmHg 89%
    Show more